Regional Weather Roundup
Issued by NWS

Home | Current Version | Previous Version | Text Only | Print | Product List | Glossary On
Versions: 1 2 3 4 5 6 7 8 9 10 11 12 13 14 15 16 17 18 19 20 21 22 23 24 25 26 27 28 29 30 31 32 33 34 35 36 37 38 39 40 41 42 43 44 45 46 47 48 49 50
000
ASUS43 KTOP 312208
RWRKS

WEATHER ROUNDUP FOR KANSAS
NATIONAL WEATHER SERVICE GOODLAND KS
500 PM CDT TUE MAY 31 2016

NOTE:  "FAIR" INDICATES FEW OR NO CLOUDS BELOW 12,000 FEET WITH NO
SIGNIFICANT WEATHER AND/OR OBSTRUCTIONS TO VISIBILITY.

KSZ001>006-013>018-027>032-041>047-312300-
NORTHWEST KANSAS

CITY           SKY/WX    TMP DP  RH WIND       PRES   REMARKS
GOODLAND       MOSUNNY   68  46  45 NE7       30.02F
HAYS           CLOUDY    73  55  53 NE13      29.96F
HILL CITY      SUNNY     75  52  44 NE10      29.97F
RUSSELL        PTSUNNY   71  59  65 NE9       29.94F
$$

KSZ061>065-074>080-084>089-312300-
SOUTHWEST KANSAS

CITY           SKY/WX    TMP DP  RH WIND       PRES   REMARKS
DODGE CITY     SUNNY     72  59  63 NE10      29.97F
ELKHART          N/A     75  55  49 NE7         N/A
GARDEN CITY    PTSUNNY   71  58  63 E15       29.97F
GREAT BEND     MOSUNNY   73  57  56 NE9       29.94F
LIBERAL        MOSUNNY   73  54  49 E10       29.98F
PRATT          PTSUNNY   72  58  60 NE9       29.94F
$$

KSZ066>073-081>083-090>101-312300-
SOUTHEAST KANSAS

CITY           SKY/WX    TMP DP  RH WIND       PRES   REMARKS
CHANUTE        CLOUDY    79  65  62 N3        29.89F
COFFEYVILLE    CLOUDY    81  67  62 SW5       29.86F
HUTCHINSON     PTSUNNY   74  62  66 N8        29.93F
MEDICINE LODGE   N/A     79  58  48 N8        29.90F
NEWTON         PTSUNNY   75  57  53 NE6         N/A
PARSONS        CLOUDY    73  68  84 NE3       29.90F
WICHITA INTL   PTSUNNY   79  60  52 E7        29.90F
WICHITA JABRA  MOSUNNY   79  62  56 E9        29.90F
WICHITA MCCONL SUNNY     80  60  50 NE7       29.90F
WINFIELD       CLOUDY    73  66  78 E10       29.90S
$$

KSZ007>012-019>026-033>040-048>060-102>105-312300-
NORTHEAST KANSAS

CITY           SKY/WX    TMP DP  RH WIND       PRES   REMARKS
CONCORDIA      MOSUNNY   74  59  59 N8        29.94F
EMPORIA        CLOUDY    79  58  48 CALM      29.91S
LAWRENCE       CLOUDY    76  64  66 CALM      29.90R
MANHATTAN      CLOUDY    79  59  50 VRB5      29.91S
MARYSVILLE     PTSUNNY   73  59  60 NW5       29.92S
OLATHE IND     CLOUDY    74  63  68 SW3       29.91R
OLATHE EXE     CLOUDY    73  63  70 SW5       29.90S
SALINA         PTSUNNY   76  60  57 NE6       29.93F
TOPEKA BILLARD   N/A     79  61  53 CALM      29.89F
TOPEKA FORBES  CLOUDY    78  63  59 SE8       29.90S
$$



USA.gov is the U.S. government's official web portal to all federal, state and local government web resources and services.